Stuarts Draft, Virginia
Current Conditions -  °F | °C
As of 12:15 AM on Tuesday 23 Dec 2014 (Local Time) from KW13 Reporting Station
Overcast Overcast  
Wind Chill: 32°   Ceiling: 300
Heat Index: 32°   Visibility: 2mi
Dew Point: 32°   Wind: 0mph
Humidity: 99%   Direction: NA
Pressure: 30.07"   Gusts: NA
Location:  38.03°N, 79.03°W
Report Text: KW13 230515Z AUTO 00000KT 2SM OVC003 00/00 A3007 RMK AO1 T00001002
Loading
Personal Weather Stations






























Interactive Weather Map New forecast layout! Learn more

10-Day Weather Forecast

Advertisements
Track Severe Weather on mobile